K5BWX-7 Weather Reports


time (UTC)temp
F
wind
direction
speed
knots
gust
knots
rain 1hr
in
rain 24hr
in
rain mn
in
humidity
%
barometer
mb
20260906044536 79 161 5.2 9.6 0.00 0.00 0.00 76 1011.2
20260906043058 82 140 3.5 10.4 0.00 0.00 0.00 72 1011.4
20260906041546 82 96 0.9 5.2 0.00 0.00 0.00 68 1011.5
20260906040021 82 138 2.6 7.0 0.00 0.00 0.00 68 1011.7
20260906034555 82 132 3.5 8.7 0.00 0.00 0.00 69 1011.0
20260906033017 82 117 0.9 3.5 0.00 0.00 0.00 70 1010.9
20260906031556 83 165 1.7 2.6 0.00 0.00 0.00 68 1010.8
20260906030045 83 5 0.0 2.6 0.00 0.00 0.00 67 1010.8
20260906024512 83 22 1.7 4.3 0.00 0.00 0.00 66 1010.7
20260906023033 83 255 0.0 3.5 0.00 0.00 0.00 65 1010.3
20260906021507 83 136 0.0 0.9 0.00 0.00 0.00 64 1010.1
20260906020045 84 136 0.0 0.9 0.00 0.00 0.00 63 1009.6
20260906014539 85 136 0.0 1.7 0.00 0.00 0.00 61 1009.6
20260906013043 86 134 0.0 5.2 0.00 0.00 0.00 60 1009.7
20260906011525 87 175 3.5 7.0 0.00 0.00 0.00 59 1009.8
20260906010008 87 174 3.5 7.0 0.00 0.00 0.00 59 1010.2
20260906004547 88 149 2.6 8.7 0.00 0.00 0.00 59 1010.1
20260906003003 89 116 7.8 13.0 0.00 0.00 0.00 59 1010.2
20260906001558 90 175 3.5 7.8 0.00 0.00 0.00 58 1009.9
20260906000021 91 98 4.3 9.6 0.00 0.00 0.00 57 1009.7
20260905234603 93 147 2.6 6.1 0.00 0.00 0.00 55 1009.4
20260905234502 93 151 2.6 6.1 0.00 0.00 0.00 55 1009.3
20260905233021 95 76 0.0 0.9 0.00 0.00 0.00 53 1009.3
20260905231556 95 319 0.0 0.9 0.00 0.00 0.00 50 1009.1
20260905230038 96 319 0.0 1.7 0.00 0.00 0.00 46 1009.0
20260905224513 97 348 1.7 5.2 0.00 0.00 0.00 44 1009.2
20260905223040 97 286 2.6 6.1 0.00 0.00 0.00 43 1009.2
20260905221517 98 340 4.3 7.8 0.00 0.00 0.00 41 1009.1
20260905220055 99 327 5.2 8.7 0.00 0.00 0.00 41 1009.2
20260905214536 99 311 6.1 9.6 0.00 0.00 0.00 42 1009.2
20260905213059 99 324 4.3 7.8 0.00 0.00 0.00 42 1009.2
20260905211544 99 315 1.7 5.2 0.00 0.00 0.00 42 1009.3
20260905210013 99 304 5.2 9.6 0.00 0.00 0.00 43 1009.4
20260905204550 99 290 5.2 9.6 0.00 0.00 0.00 43 1009.6
20260905203024 99 289 1.7 5.2 0.00 0.00 0.00 42 1009.7
20260905201558 99 252 3.5 7.0 0.00 0.00 0.00 44 1009.9
20260905200026 98 237 3.5 6.1 0.00 0.00 0.00 42 1010.3
20260905194506 98 311 4.3 9.6 0.00 0.00 0.00 42 1010.4
20260905193033 98 309 1.7 6.1 0.00 0.00 0.00 43 1010.5
20260905191513 97 29 1.7 10.4 0.00 0.00 0.00 44 1010.8
20260905190045 97 14 6.1 8.7 0.00 0.00 0.00 43 1011.0
20260905184522 96 118 0.9 6.1 0.00 0.00 0.00 47 1011.3
20260905183048 96 360 3.5 9.6 0.00 0.00 0.00 48 1011.5
20260905180004 96 344 3.5 7.8 0.00 0.00 0.00 48 1012.1
20260905174544 96 93 2.6 6.1 0.00 0.00 0.00 50 1012.1
20260905173059 95 66 0.9 5.2 0.00 0.00 0.00 52 1012.2
20260905171538 95 95 2.6 6.1 0.00 0.00 0.00 53 1012.3
20260905170020 93 303 1.7 6.1 0.00 0.00 0.00 55 1012.5
20260905164602 93 100 0.0 7.0 0.00 0.00 0.00 56 1012.7
20260905163019 92 297 5.2 7.8 0.00 0.00 0.00 59 1012.9
20260905161549 91 312 1.7 6.1 0.00 0.00 0.00 60 1013.2
20260905160030 90 299 0.9 4.3 0.00 0.00 0.00 65 1013.3
20260905154505 88 273 0.9 6.1 0.00 0.00 0.00 67 1013.5
20260905153024 87 294 0.9 5.2 0.00 0.00 0.00 70 1013.6
20260905151600 85 343 1.7 4.3 0.00 0.00 0.00 72 1013.7
20260905151502 85 328 2.6 4.3 0.00 0.00 0.00 73 1013.6
20260905150040 84 292 0.0 4.3 0.00 0.00 0.00 76 1013.6
20260905144522 83 197 0.9 4.3 0.00 0.00 0.00 77 1013.7
20260905143038 82 341 0.0 1.7 0.00 0.00 0.00 81 1013.8
20260905141514 81 88 0.0 1.7 0.00 0.00 0.00 84 1013.9
20260905140105 80 111 0.9 2.6 0.00 0.00 0.00 85 1013.7
20260905134534 79 78 0.9 1.7 0.00 0.00 0.00 86 1013.8
20260905133047 79 78 0.0 0.0 0.00 0.00 0.00 86 1013.9
20260905131530 78 78 0.0 0.0 0.00 0.00 0.00 87 1014.0
20260905130007 77 78 0.0 0.0 0.00 0.00 0.00 88 1013.9
20260905124544 76 78 0.0 0.0 0.00 0.00 0.00 89 1014.0
20260905123007 75 78 0.0 0.0 0.00 0.00 0.00 90 1013.9
20260905121545 75 78 0.0 0.0 0.00 0.00 0.00 90 1013.8
20260905120025 74 78 0.0 0.0 0.00 0.00 0.00 90 1013.8
20260905114559 74 78 0.0 0.0 0.00 0.00 0.00 90 1013.4
20260905114501 74 78 0.0 0.0 0.00 0.00 0.00 90 1013.4
20260905113023 73 78 0.0 0.0 0.00 0.00 0.00 89 1013.2
20260905111604 74 78 0.0 0.0 0.00 0.00 0.00 89 1013.0
20260905110044 74 78 0.0 0.0 0.00 0.00 0.00 89 1012.8
20260905104513 74 78 0.0 0.0 0.00 0.00 0.00 89 1012.6
20260905103034 74 78 0.0 0.0 0.00 0.00 0.00 89 1012.5
20260905101518 74 78 0.0 0.0 0.00 0.00 0.00 88 1012.4
20260905100052 75 78 0.0 0.0 0.00 0.00 0.00 88 1012.3
20260905094534 74 78 0.0 0.0 0.00 0.00 0.00 88 1012.2
20260905093053 75 78 0.0 0.0 0.00 0.00 0.00 88 1012.1
20260905091536 75 78 0.0 0.0 0.00 0.00 0.00 87 1012.2
20260905090009 75 78 0.0 0.0 0.00 0.00 0.00 87 1012.2
20260905084549 75 78 0.0 0.0 0.00 0.00 0.00 86 1012.3
20260905083010 75 78 0.0 0.0 0.00 0.00 0.00 86 1012.2
20260905081545 76 78 0.0 0.0 0.00 0.00 0.00 85 1012.1
20260905080025 76 78 0.0 0.0 0.00 0.00 0.00 86 1012.2
20260905074503 76 78 0.0 0.0 0.00 0.00 0.00 85 1012.4
20260905073023 76 78 0.0 0.0 0.00 0.00 0.00 86 1012.4
20260905071609 76 78 0.0 0.0 0.00 0.00 0.00 84 1012.5
20260905071502 76 78 0.0 0.0 0.00 0.00 0.00 84 1012.5
20260905070046 76 78 0.0 0.0 0.00 0.00 0.00 84 1012.4
20260905064523 76 78 0.0 0.0 0.00 0.00 0.00 84 1012.6
20260905063038 77 78 0.0 0.0 0.00 0.00 0.00 83 1012.5
20260905061529 77 78 0.0 0.0 0.00 0.00 0.00 82 1012.5
20260905060053 77 78 0.0 1.7 0.00 0.00 0.00 82 1012.5
20260905054541 78 177 0.0 0.0 0.00 0.00 0.00 81 1012.5
20260905053100 78 177 0.0 0.0 0.00 0.00 0.00 81 1012.4
20260905053002 78 177 0.0 0.0 0.00 0.00 0.00 81 1012.4
20260905051537 78 177 0.0 0.0 0.00 0.00 0.00 81 1012.4
20260905050018 79 177 0.0 0.0 0.00 0.00 0.00 80 1012.7